This is the latest recevied weather packets stored in our database for station/object HB9KBJ-8. If no packets are shown the sender has not sent any weather packets the latest 10 day(s).
| Time | Temp. | Humidity | Pressure | Rain* | Wind** | Luminosity | Snow |
|---|---|---|---|---|---|---|---|
| 1777722146 | 23.33° C | 46% | 1020.7 hPa | 0 mm | - | 788 W/m² | - |
| 1777721841 | 22.22° C | 47% | 1020.8 hPa | 0 mm | - | 729 W/m² | - |
| 1777721536 | 22.78° C | 45% | 1020.9 hPa | 0 mm | - | 756 W/m² | - |
| 1777721251 | 22.78° C | 47% | 1021 hPa | 0 mm | - | 793 W/m² | - |
| 1777720945 | 22.78° C | 47% | 1021.1 hPa | 0 mm | - | 782 W/m² | - |
| 1777720639 | 22.78° C | 46% | 1021.2 hPa | 0 mm | - | 784 W/m² | - |
| 1777720339 | 22.78° C | 45% | 1021.3 hPa | 0 mm | - | 795 W/m² | - |
| 1777720051 | 23.33° C | 45% | 1021.4 hPa | 0 mm | - | 775 W/m² | - |
| 1777719748 | 21.67° C | 49% | 1021.5 hPa | 0 mm | - | 777 W/m² | - |
| 1777719455 | 22.78° C | 47% | 1021.5 hPa | 0 mm | - | 777 W/m² | - |
| 1777719150 | 21.11° C | 50% | 1021.6 hPa | 0 mm | - | 749 W/m² | - |
| 1777718841 | 21.11° C | 52% | 1021.7 hPa | 0 mm | - | 772 W/m² | - |
| 1777718536 | 21.67° C | 50% | 1021.8 hPa | 0 mm | - | 744 W/m² | - |
| 1777718250 | 21.11° C | 51% | 1021.9 hPa | 0 mm | - | 765 W/m² | - |
| 1777717943 | 20.56° C | 52% | 1021.9 hPa | 0 mm | - | 770 W/m² | - |
| 1777717639 | 20.56° C | 51% | 1022 hPa | 0 mm | - | 786 W/m² | - |
| 1777717340 | 20.56° C | 51% | 1022.1 hPa | 0 mm | - | 717 W/m² | - |
| 1777717044 | 20.56° C | 52% | 1022.2 hPa | 0 mm | - | 722 W/m² | - |
| 1777716742 | 20° C | 52% | 1022.3 hPa | 0 mm | - | 700 W/m² | - |
| 1777716435 | 20.56° C | 52% | 1022.3 hPa | 0 mm | - | 703 W/m² | - |
| 1777716152 | 20° C | 54% | 1022.4 hPa | 0 mm | - | 719 W/m² | - |
| 1777715847 | 20° C | 54% | 1022.4 hPa | 0 mm | - | 722 W/m² | - |
| 1777715542 | 19.44° C | 55% | 1022.5 hPa | 0 mm | - | 710 W/m² | - |
| 1777715236 | 19.44° C | 55% | 1022.6 hPa | 0 mm | - | 726 W/m² | - |
| 1777714951 | 20° C | 53% | 1022.6 hPa | 0 mm | - | 724 W/m² | - |
* Rain latest hour (hover to see other rain measurements)
** Current wind speed in m/s (hover to see current wind gust speed)